Regional Weather Roundup
Issued by NWS

Home | Current Version | Previous Version | Graphics & Text | Print | Product List | Glossary On
Versions: 1 2 3 4 5 6 7 8 9 10 11 12 13 14 15 16 17 18 19 20 21 22 23 24 25 26 27 28
000
ASUS45 KCYS 181910
RWRWY

WYOMING REGIONAL WEATHER ROUNDUP
NATIONAL WEATHER SERVICE CHEYENNE WY
100 PM MDT WED OCT 18 2017

NOTE:  "FAIR" INDICATES FEW OR NO CLOUDS BELOW 12,000 FEET
WITH NO SIGNIFICANT WEATHER AND/OR OBSTRUCTIONS TO VISIBILITY.

WYZ001-182000-
YELLOWSTONE NATIONAL PARK

CITY           SKY/WX    TMP DP  RH WIND       PRES   REMARKS
LK YELLOWSTONE   N/A     49  18  29 SW8       30.24F
W YELLOWSTONE  NOT AVBL

$$
WYZ002>013-054>058-071-098>099-182000-
NORTHERN WYOMING

CITY           SKY/WX    TMP DP  RH WIND       PRES   REMARKS
JACKSON        FAIR      60  20  21 SW16G22   30.22F
CODY           FAIR      68  10  10 W9        30.06F
GREYBULL       FAIR      67  22  18 SE7       30.02F
WORLAND        FAIR      68  26  20 NE5       30.04F
SHERIDAN       FAIR      63  29  27 SE14G20   30.02F
BUFFALO        FAIR      63  21  20 S21       30.06F
GILLETTE       FAIR      62  28  27 S15       30.06F
HULETT         FAIR      59  25  27 W6        30.08F
NEWCASTLE      FAIR      64  23  20 SE9G21    30.10F

$$
WYZ014>020-022>026-101>103-182000-
CENTRAL WYOMING

CITY           SKY/WX    TMP DP  RH WIND       PRES   REMARKS
BIG PINEY      FAIR      58  13  17 CALM      30.26F
PINEDALE       FAIR      55  10  16 W6        30.27F
DUBOIS         FAIR      59   9  13 W17G24    30.18F
LANDER         FAIR      64  17  16 SE6       30.12F
RIVERTON       FAIR      65  12  12 CALM      30.12F
CASPER         FAIR      67  13  12 MISG      30.13F
DOUGLAS        FAIR      70  13  11 W8        30.11F

$$
WYZ021-027>030-104>119-182000-
SOUTHERN WYOMING

CITY           SKY/WX    TMP DP  RH WIND       PRES   REMARKS
EVANSTON       FAIR      63  10  12 W12       30.28F
KEMMERER       FAIR      59  10  14 W13       30.30S
FORT BRIDGER   FAIR      65  10  11 W9G16     30.30F
ROCK SPRINGS   FAIR      60  12  15 SW10G20   30.27F
DIXON          FAIR      66  10  11 SW8G20    30.29F
RAWLINS        FAIR      63   7  11 SW22      30.24F
SARATOGA       FAIR      66  10  11 W17       30.26S
LARAMIE        FAIR      64   7  10 CALM      30.23F
CHEYENNE       FAIR      70   7   8 NW7       30.18F
TORRINGTON     FAIR      72  11   9 VRB3      30.09F
PINE BLUFFS    FAIR      72  12  10 N8        30.14F

$$




USA.gov is the U.S. government's official web portal to all federal, state and local government web resources and services.